Regional Weather Roundup
Issued by NWS

Home | Current Version | Previous Version | Text Only | Print | Product List | Glossary Off
Versions: 1 2 3 4 5 6 7 8 9 10 11 12 13 14 15 16 17 18 19 20 21 22 23 24 25 26 27 28 29 30 31 32 33 34 35 36 37 38 39 40 41 42 43 44 45 46 47 48 49 50

000
ASUS43 KBIS 200310
RWRND

NORTH DAKOTA REGIONAL WEATHER ROUNDUP
NATIONAL WEATHER SERVICE BISMARCK ND
1000 PM CDT THU OCT 19 2017

NOTE: "FAIR" INDICATES FEW OR NO CLOUDS BELOW 12,000 FEET WITH NO
SIGNIFICANT WEATHER AND/OR OBSTRUCTIONS TO VISIBILITY.


NDZ001>003-009>011-017-200400-
NORTHWEST NORTH DAKOTA

CITY           SKY/WX    TMP DP  RH WIND       PRES   REMARKS
WILLISTON      CLEAR     43  34  70 CALM      29.60F
MINOT          CLEAR     58  35  42 SE6       29.63F
MINOT AFB      CLOUDY    47  33  58 SE8G17    29.61F
$$

NDZ018>021-031>035-040>046-200400-
SOUTHWEST NORTH DAKOTA

CITY           SKY/WX    TMP DP  RH WIND       PRES   REMARKS
BISMARCK       CLOUDY    51  40  65 SE8       29.69F
DICKINSON      CLOUDY    53  29  39 S12       29.65F
GARRISON         N/A     52  38  58 S3        29.66S
HETTINGER ARPT CLEAR     55  26  32 SE5       29.69F
$$

NDZ004>008-012>016-024-026-027-054-200400-
NORTHEAST NORTH DAKOTA

CITY           SKY/WX    TMP DP  RH WIND       PRES   REMARKS
GRAND FORKS    PTCLDY    53  41  63 S7        29.70S
GRND FRKS AFB  CLEAR     56  40  56 SW8       29.70S
DEVILS LAKE    CLEAR     51  40  65 SE3       29.70F
$$

NDZ022-023-025-028>030-036>039-047>053-200400-
SOUTHEAST NORTH DAKOTA

CITY           SKY/WX    TMP DP  RH WIND       PRES   REMARKS
FARGO          CLEAR     61  45  55 SE8       29.75F
JAMESTOWN      CLEAR     52  41  66 S9        29.72F
$$





USA.gov is the U.S. government's official web portal to all federal, state and local government web resources and services.